RYR79PF LEIB-LOWW

Flight info

Callsign RYR79PF
Flight time 2h 10m
Altitude 37000
Route KABRE DCT ELTAN DCT ISTER DCT NIVDA DCT OMEDA DCT RAPUR DCT TORTU DCT ERTEV/N0436F370 DCT ARALD DCT ABTAN ABTAN2W
Aircraft A320/M-SDE3FGHIRWY/LB1

Departure

Time 2026-04-26 09:47
Airport Ibiza Airport (LEIB)

Arrival

Time 2026-04-26 11:58
Airport Vienna International Airport (LOWW)
Time Latitude Longitude Altitude Speed Heading
2026-04-26 09:39 38.87519 1.36998 8 ft 0 kts 242°
2026-04-26 09:41 38.87519 1.36997 8 ft 2 kts 242°
2026-04-26 09:42 38.87490 1.36925 9 ft 10 kts 243°
2026-04-26 09:42 38.87456 1.36840 8 ft 17 kts 242°
2026-04-26 09:42 38.87409 1.36732 8 ft 12 kts 242°
2026-04-26 09:42 38.87390 1.36684 9 ft 1 kts 244°
2026-04-26 09:43 38.87419 1.36759 8 ft 14 kts 242°
2026-04-26 09:43 38.87424 1.36787 8 ft 4 kts 201°
2026-04-26 09:43 38.87400 1.36798 8 ft 7 kts 149°
2026-04-26 09:43 38.87339 1.36839 8 ft 11 kts 153°
2026-04-26 09:44 38.87279 1.36849 9 ft 8 kts 223°
2026-04-26 09:44 38.87255 1.36792 9 ft 7 kts 244°
2026-04-26 09:44 38.87205 1.36665 8 ft 24 kts 243°
2026-04-26 09:44 38.87112 1.36439 8 ft 31 kts 242°
2026-04-26 09:45 38.87009 1.36191 8 ft 32 kts 242°
2026-04-26 09:45 38.86904 1.35938 8 ft 31 kts 242°
2026-04-26 09:45 38.86855 1.35824 8 ft 8 kts 223°
2026-04-26 09:45 38.86807 1.35829 9 ft 7 kts 151°
2026-04-26 09:46 38.86765 1.35858 6 ft 8 kts 152°
2026-04-26 09:46 38.86713 1.35928 6 ft 13 kts 86°
2026-04-26 09:46 38.86756 1.36034 5 ft 14 kts 62°
2026-04-26 09:46 38.86815 1.36180 6 ft 31 kts 63°
2026-04-26 09:47 38.87034 1.36708 8 ft 99 kts 62°
2026-04-26 09:47 38.87449 1.37712 11 ft 153 kts 62°
2026-04-26 09:47 38.87968 1.38976 474 ft 160 kts 64°
2026-04-26 09:47 38.88487 1.40248 1111 ft 163 kts 64°
2026-04-26 09:48 38.88991 1.41579 1720 ft 172 kts 75°
2026-04-26 09:48 38.89210 1.43176 2043 ft 192 kts 82°
2026-04-26 09:48 38.89348 1.44336 2241 ft 203 kts 82°
2026-04-26 09:48 38.89671 1.46780 3105 ft 209 kts 80°
2026-04-26 09:49 38.89853 1.48008 3450 ft 218 kts 79°
2026-04-26 09:49 38.90185 1.50012 3784 ft 241 kts 78°
2026-04-26 09:49 38.90561 1.52179 4365 ft 253 kts 78°
2026-04-26 09:49 38.90954 1.54407 5155 ft 258 kts 78°
2026-04-26 09:50 38.91353 1.56668 5938 ft 262 kts 78°
2026-04-26 09:50 38.91754 1.58964 6726 ft 266 kts 78°
2026-04-26 09:50 38.92159 1.61294 7479 ft 269 kts 78°
2026-04-26 09:50 38.92565 1.63652 8246 ft 272 kts 78°
2026-04-26 09:51 38.92973 1.66039 9024 ft 275 kts 78°
2026-04-26 09:51 38.93385 1.68457 9804 ft 278 kts 78°
2026-04-26 09:51 38.93799 1.70873 10415 ft 287 kts 78°
2026-04-26 09:51 38.94243 1.73477 10597 ft 310 kts 78°
2026-04-26 09:52 38.94716 1.76266 10897 ft 326 kts 78°
2026-04-26 09:52 38.95696 1.82055 12174 ft 336 kts 78°
2026-04-26 09:52 38.96197 1.85014 12849 ft 340 kts 78°
2026-04-26 09:53 38.96701 1.87997 13513 ft 344 kts 78°
2026-04-26 09:53 38.97210 1.91014 14139 ft 347 kts 78°
2026-04-26 09:53 38.97725 1.94061 14711 ft 351 kts 78°
2026-04-26 09:53 38.98243 1.97136 15297 ft 354 kts 78°
2026-04-26 09:54 38.98766 2.00242 15890 ft 356 kts 78°
2026-04-26 09:54 38.99293 2.03374 16474 ft 359 kts 78°
2026-04-26 09:54 38.99821 2.06523 17059 ft 362 kts 79°
2026-04-26 09:54 39.00351 2.09699 17646 ft 364 kts 79°
2026-04-26 09:55 39.00881 2.12898 18224 ft 367 kts 79°
2026-04-26 09:55 39.01415 2.16117 18751 ft 369 kts 79°
2026-04-26 09:55 39.01955 2.19366 19231 ft 373 kts 79°
2026-04-26 09:55 39.02498 2.22630 19709 ft 376 kts 79°
2026-04-26 09:56 39.03039 2.25896 20186 ft 379 kts 79°
2026-04-26 09:56 39.03589 2.29230 20655 ft 382 kts 79°
2026-04-26 09:56 39.04142 2.32596 21112 ft 386 kts 79°
2026-04-26 09:56 39.04697 2.35989 21569 ft 390 kts 79°
2026-04-26 09:57 39.05260 2.39420 22034 ft 393 kts 79°
2026-04-26 09:57 39.05828 2.42875 22492 ft 396 kts 79°
2026-04-26 09:57 39.06402 2.46374 22942 ft 400 kts 79°
2026-04-26 09:57 39.06978 2.49892 23380 ft 403 kts 79°
2026-04-26 09:58 39.07558 2.53432 23796 ft 406 kts 79°
2026-04-26 09:58 39.08140 2.57002 24151 ft 409 kts 79°
2026-04-26 09:58 39.08716 2.60553 24510 ft 411 kts 79°
2026-04-26 09:58 39.09300 2.64166 24855 ft 414 kts 80°
2026-04-26 09:59 39.09886 2.67803 25213 ft 415 kts 79°
2026-04-26 09:59 39.10474 2.71458 25544 ft 418 kts 79°
2026-04-26 09:59 39.11065 2.75132 25879 ft 420 kts 79°
2026-04-26 09:59 39.11659 2.78825 26206 ft 422 kts 79°
2026-04-26 10:00 39.12258 2.82535 26543 ft 424 kts 79°
2026-04-26 10:00 39.12857 2.86271 26875 ft 426 kts 79°
2026-04-26 10:00 39.13450 2.90011 27196 ft 428 kts 79°
2026-04-26 10:00 39.14076 2.93767 27524 ft 430 kts 76°
2026-04-26 10:01 39.15068 2.97413 27831 ft 433 kts 66°
2026-04-26 10:01 39.16429 3.00884 28132 ft 436 kts 63°
2026-04-26 10:01 39.17827 3.04364 28435 ft 438 kts 64°
2026-04-26 10:01 39.19224 3.07870 28717 ft 440 kts 64°
2026-04-26 10:02 39.20616 3.11387 28977 ft 442 kts 64°
2026-04-26 10:02 39.22014 3.14931 29256 ft 444 kts 64°
2026-04-26 10:02 39.23416 3.18490 29528 ft 446 kts 64°
2026-04-26 10:02 39.24823 3.22060 29791 ft 447 kts 64°
2026-04-26 10:03 39.26234 3.25643 30061 ft 449 kts 64°
2026-04-26 10:03 39.27652 3.29248 30291 ft 451 kts 64°
2026-04-26 10:03 39.29054 3.32820 30500 ft 452 kts 64°
2026-04-26 10:03 39.30475 3.36443 30719 ft 453 kts 64°
2026-04-26 10:04 39.31901 3.40079 30913 ft 454 kts 64°
2026-04-26 10:04 39.33332 3.43728 31187 ft 454 kts 64°
2026-04-26 10:04 39.34756 3.47358 31492 ft 452 kts 64°
2026-04-26 10:04 39.36173 3.50979 31794 ft 451 kts 64°
2026-04-26 10:05 39.37583 3.54590 32094 ft 449 kts 64°
2026-04-26 10:05 39.38992 3.58198 32394 ft 448 kts 64°
2026-04-26 10:05 39.40392 3.61786 32691 ft 447 kts 64°
2026-04-26 10:05 39.41786 3.65365 32996 ft 445 kts 64°
2026-04-26 10:06 39.43175 3.68946 33293 ft 444 kts 64°
2026-04-26 10:06 39.44541 3.72470 33578 ft 443 kts 64°
2026-04-26 10:06 39.45920 3.76031 33872 ft 442 kts 64°
2026-04-26 10:06 39.47295 3.79588 34163 ft 440 kts 64°
2026-04-26 10:07 39.48665 3.83132 34408 ft 440 kts 64°
2026-04-26 10:07 39.50032 3.86672 34589 ft 440 kts 64°
2026-04-26 10:07 39.51402 3.90226 34775 ft 441 kts 64°
2026-04-26 10:07 39.52775 3.93780 34931 ft 442 kts 64°
2026-04-26 10:08 39.54152 3.97349 35098 ft 443 kts 64°
2026-04-26 10:08 39.55529 4.00919 35261 ft 443 kts 64°
2026-04-26 10:08 39.56905 4.04493 35432 ft 443 kts 64°
2026-04-26 10:08 39.58281 4.08076 35595 ft 444 kts 64°
2026-04-26 10:09 39.59654 4.11661 35760 ft 444 kts 64°
2026-04-26 10:09 39.61166 4.15090 35908 ft 445 kts 56°
2026-04-26 10:09 39.63120 4.18270 36053 ft 446 kts 46°
2026-04-26 10:09 39.65367 4.20962 36185 ft 446 kts 40°
2026-04-26 10:10 39.67740 4.23566 36316 ft 447 kts 40°
2026-04-26 10:10 39.70110 4.26177 36466 ft 447 kts 40°
2026-04-26 10:10 39.72482 4.28799 36603 ft 447 kts 40°
2026-04-26 10:10 39.74850 4.31419 36750 ft 447 kts 41°
2026-04-26 10:11 39.77215 4.34044 36898 ft 447 kts 41°
2026-04-26 10:11 39.79579 4.36666 37055 ft 446 kts 41°
2026-04-26 10:11 39.81941 4.39288 37159 ft 447 kts 41°
2026-04-26 10:11 39.84310 4.41919 37169 ft 447 kts 41°
2026-04-26 10:12 39.89039 4.47177 37171 ft 447 kts 41°
2026-04-26 10:12 39.93762 4.52448 37174 ft 447 kts 41°
2026-04-26 10:13 39.97681 4.56833 37176 ft 447 kts 41°
2026-04-26 10:13 40.03198 4.63002 37180 ft 447 kts 40°
2026-04-26 10:14 40.07679 4.68528 37179 ft 446 kts 51°
2026-04-26 10:14 40.11638 4.74765 37180 ft 446 kts 51°
2026-04-26 10:15 40.15603 4.81016 37186 ft 446 kts 50°
2026-04-26 10:15 40.19569 4.87258 37185 ft 447 kts 50°
2026-04-26 10:16 40.23546 4.93513 37189 ft 447 kts 50°
2026-04-26 10:16 40.27527 4.99789 37194 ft 447 kts 50°
2026-04-26 10:17 40.31485 5.06062 37196 ft 446 kts 50°
2026-04-26 10:17 40.35415 5.12298 37195 ft 446 kts 50°
2026-04-26 10:18 40.39362 5.18573 37191 ft 446 kts 50°
2026-04-26 10:18 40.43305 5.24858 37186 ft 447 kts 50°
2026-04-26 10:19 40.47254 5.31164 37186 ft 447 kts 50°
2026-04-26 10:19 40.51212 5.37485 37188 ft 447 kts 50°
2026-04-26 10:20 40.54493 5.42744 37188 ft 447 kts 50°
2026-04-26 10:20 40.59101 5.50144 37189 ft 447 kts 50°
2026-04-26 10:21 40.63047 5.56495 37191 ft 448 kts 50°
2026-04-26 10:21 40.66985 5.62840 37193 ft 448 kts 50°
2026-04-26 10:22 40.70897 5.69159 37193 ft 447 kts 51°
2026-04-26 10:22 40.74826 5.75523 37191 ft 448 kts 50°
2026-04-26 10:23 40.78753 5.81899 37193 ft 448 kts 50°
2026-04-26 10:23 40.82685 5.88291 37186 ft 448 kts 50°
2026-04-26 10:24 40.86617 5.94697 37185 ft 449 kts 50°
2026-04-26 10:24 40.90549 6.01116 37183 ft 449 kts 51°
2026-04-26 10:25 40.94473 6.07540 37181 ft 449 kts 51°
2026-04-26 10:25 40.98368 6.13931 37190 ft 449 kts 50°
2026-04-26 10:26 41.02295 6.20375 37193 ft 450 kts 51°
2026-04-26 10:26 41.06217 6.26837 37194 ft 450 kts 51°
2026-04-26 10:27 41.10137 6.33302 37194 ft 450 kts 51°
2026-04-26 10:27 41.14033 6.39736 37195 ft 450 kts 51°
2026-04-26 10:28 41.17943 6.46225 37201 ft 450 kts 51°
2026-04-26 10:28 41.21850 6.52729 37200 ft 450 kts 51°
2026-04-26 10:29 41.25759 6.59219 37197 ft 450 kts 50°
2026-04-26 10:29 41.29745 6.65637 37197 ft 450 kts 49°
2026-04-26 10:30 41.33731 6.71975 37194 ft 449 kts 49°
2026-04-26 10:30 41.37725 6.78383 37200 ft 450 kts 49°
2026-04-26 10:31 41.41699 6.84821 37205 ft 450 kts 50°
2026-04-26 10:31 41.45668 6.91267 37203 ft 450 kts 50°
2026-04-26 10:32 41.49645 6.97719 37197 ft 450 kts 50°
2026-04-26 10:32 41.53607 7.04167 37203 ft 449 kts 50°
2026-04-26 10:33 41.57565 7.10624 37204 ft 449 kts 50°
2026-04-26 10:33 41.61521 7.17094 37202 ft 450 kts 50°
2026-04-26 10:34 41.65455 7.23542 37197 ft 450 kts 50°
2026-04-26 10:34 41.69434 7.30071 37199 ft 450 kts 50°
2026-04-26 10:35 41.73356 7.36518 37199 ft 450 kts 50°
2026-04-26 10:35 41.77302 7.43031 37202 ft 450 kts 50°
2026-04-26 10:36 41.81242 7.49536 37199 ft 450 kts 50°
2026-04-26 10:36 41.84543 7.54999 37198 ft 450 kts 50°
2026-04-26 10:37 41.88486 7.61435 37196 ft 449 kts 44°
2026-04-26 10:37 41.93288 7.66748 37198 ft 447 kts 37°
2026-04-26 10:38 41.98182 7.71916 37203 ft 447 kts 37°
2026-04-26 10:38 42.03078 7.77089 37200 ft 448 kts 37°
2026-04-26 10:39 42.07968 7.82290 37199 ft 448 kts 37°
2026-04-26 10:39 42.12860 7.87501 37199 ft 448 kts 37°
2026-04-26 10:40 42.17745 7.92718 37204 ft 448 kts 37°
2026-04-26 10:40 42.22627 7.97944 37204 ft 448 kts 37°
2026-04-26 10:41 42.27492 8.03160 37200 ft 449 kts 37°
2026-04-26 10:41 42.32376 8.08409 37199 ft 449 kts 37°
2026-04-26 10:42 42.37265 8.13669 37206 ft 449 kts 37°
2026-04-26 10:42 42.42148 8.18933 37204 ft 449 kts 37°
2026-04-26 10:43 42.47029 8.24213 37198 ft 449 kts 37°
2026-04-26 10:43 42.51911 8.29498 37197 ft 449 kts 37°
2026-04-26 10:44 42.56794 8.34794 37192 ft 449 kts 37°
2026-04-26 10:44 42.61663 8.40099 37168 ft 449 kts 37°
2026-04-26 10:45 42.66544 8.45413 37179 ft 450 kts 37°
2026-04-26 10:45 42.71423 8.50733 37193 ft 450 kts 37°
2026-04-26 10:46 42.76301 8.56076 37191 ft 450 kts 37°
2026-04-26 10:46 42.81175 8.61420 37176 ft 450 kts 37°
2026-04-26 10:47 42.86045 8.66765 37196 ft 449 kts 37°
2026-04-26 10:47 42.90911 8.72128 37214 ft 450 kts 37°
2026-04-26 10:48 42.95773 8.77499 37196 ft 450 kts 37°
2026-04-26 10:48 43.00617 8.82844 37204 ft 450 kts 37°
2026-04-26 10:49 43.05480 8.88221 37196 ft 450 kts 37°
2026-04-26 10:49 43.10344 8.93619 37207 ft 450 kts 38°
2026-04-26 10:50 43.14378 8.98120 37206 ft 450 kts 38°
2026-04-26 10:50 43.20044 9.04451 37204 ft 450 kts 38°
2026-04-26 10:51 43.27329 9.12584 37218 ft 450 kts 37°
2026-04-26 10:52 43.32154 9.17990 37209 ft 450 kts 38°
2026-04-26 10:52 43.37003 9.23443 37207 ft 450 kts 38°
2026-04-26 10:53 43.41852 9.28902 37204 ft 451 kts 38°
2026-04-26 10:53 43.46701 9.34364 37218 ft 451 kts 38°
2026-04-26 10:54 43.53968 9.42588 37210 ft 450 kts 38°
2026-04-26 10:54 43.58795 9.48068 37205 ft 450 kts 38°
2026-04-26 10:55 43.63629 9.53568 37208 ft 450 kts 38°
2026-04-26 10:55 43.68471 9.59072 37210 ft 450 kts 38°
2026-04-26 10:56 43.73307 9.64583 37206 ft 450 kts 38°
2026-04-26 10:56 43.78135 9.70114 37202 ft 450 kts 38°
2026-04-26 10:57 43.82964 9.75655 37197 ft 450 kts 38°
2026-04-26 10:57 43.87787 9.81200 37189 ft 450 kts 38°
2026-04-26 10:58 43.92582 9.86715 37178 ft 450 kts 38°
2026-04-26 10:58 43.97398 9.92276 37168 ft 450 kts 38°
2026-04-26 10:59 44.02211 9.97853 37165 ft 450 kts 38°
2026-04-26 10:59 44.07023 10.03429 37164 ft 451 kts 38°
2026-04-26 11:00 44.11845 10.09025 37159 ft 451 kts 38°
2026-04-26 11:00 44.16659 10.14631 37181 ft 451 kts 38°
2026-04-26 11:01 44.21469 10.20247 37192 ft 451 kts 38°
2026-04-26 11:01 44.26280 10.25868 37202 ft 451 kts 38°
2026-04-26 11:02 44.31083 10.31498 37239 ft 451 kts 38°
2026-04-26 11:02 44.35862 10.37098 37239 ft 451 kts 38°
2026-04-26 11:03 44.40661 10.42749 37247 ft 451 kts 38°
2026-04-26 11:03 44.45457 10.48413 37248 ft 451 kts 38°
2026-04-26 11:04 44.50252 10.54081 37249 ft 451 kts 38°
2026-04-26 11:04 44.55047 10.59765 37244 ft 451 kts 38°
2026-04-26 11:05 44.59838 10.65455 37237 ft 450 kts 38°
2026-04-26 11:05 44.64587 10.71112 37240 ft 450 kts 38°
2026-04-26 11:06 44.68566 10.75860 37238 ft 450 kts 38°
2026-04-26 11:06 44.74146 10.82537 37229 ft 450 kts 38°
2026-04-26 11:07 44.78922 10.88256 37217 ft 450 kts 38°
2026-04-26 11:07 44.83659 10.93940 37216 ft 450 kts 38°
2026-04-26 11:08 44.88421 10.99669 37207 ft 450 kts 38°
2026-04-26 11:08 44.93180 11.05412 37198 ft 450 kts 38°
2026-04-26 11:09 44.97939 11.11161 37198 ft 450 kts 38°
2026-04-26 11:09 45.02689 11.16924 37187 ft 450 kts 39°
2026-04-26 11:10 45.07439 11.22704 37179 ft 450 kts 39°
2026-04-26 11:10 45.12194 11.28487 37181 ft 450 kts 39°
2026-04-26 11:11 45.16946 11.34281 37175 ft 450 kts 39°
2026-04-26 11:11 45.21690 11.40082 37170 ft 450 kts 39°
2026-04-26 11:12 45.26404 11.45864 37162 ft 450 kts 39°
2026-04-26 11:12 45.31157 11.51698 37142 ft 451 kts 39°
2026-04-26 11:13 45.35900 11.57535 37131 ft 451 kts 39°
2026-04-26 11:13 45.40635 11.63384 37132 ft 451 kts 39°
2026-04-26 11:14 45.45346 11.69204 37126 ft 451 kts 39°
2026-04-26 11:14 45.49314 11.74125 37123 ft 451 kts 39°
2026-04-26 11:15 45.54805 11.80968 37122 ft 451 kts 39°
2026-04-26 11:15 45.59524 11.86845 37127 ft 450 kts 39°
2026-04-26 11:16 45.64247 11.92735 37122 ft 450 kts 39°
2026-04-26 11:16 45.68964 11.98635 37119 ft 450 kts 39°
2026-04-26 11:17 45.73674 12.04532 37131 ft 450 kts 39°
2026-04-26 11:17 45.78385 12.10465 37121 ft 450 kts 39°
2026-04-26 11:18 45.83055 12.16360 37120 ft 450 kts 39°
2026-04-26 11:18 45.87757 12.22305 37119 ft 450 kts 39°
2026-04-26 11:19 45.92459 12.28256 37121 ft 450 kts 39°
2026-04-26 11:19 45.97158 12.34209 37117 ft 450 kts 39°
2026-04-26 11:20 46.01057 12.39165 37121 ft 450 kts 39°
2026-04-26 11:20 46.06534 12.46151 37126 ft 449 kts 39°
2026-04-26 11:21 46.11178 12.52078 37112 ft 449 kts 39°
2026-04-26 11:21 46.15850 12.58065 37115 ft 449 kts 39°
2026-04-26 11:22 46.20508 12.64057 37113 ft 449 kts 39°
2026-04-26 11:22 46.25171 12.70063 37113 ft 449 kts 39°
2026-04-26 11:23 46.29042 12.75057 37120 ft 449 kts 39°
2026-04-26 11:23 46.33698 12.81071 37123 ft 449 kts 39°
2026-04-26 11:24 46.38355 12.87107 37119 ft 449 kts 39°
2026-04-26 11:24 46.43007 12.93147 37121 ft 449 kts 39°
2026-04-26 11:25 46.47650 12.99196 37123 ft 449 kts 39°
2026-04-26 11:25 46.52290 13.05262 37126 ft 448 kts 39°
2026-04-26 11:26 46.56935 13.11325 37133 ft 448 kts 39°
2026-04-26 11:26 46.61543 13.17356 37133 ft 448 kts 39°
2026-04-26 11:27 46.66159 13.23458 37142 ft 448 kts 42°
2026-04-26 11:27 46.69924 13.30715 37149 ft 453 kts 60°
2026-04-26 11:28 46.72817 13.38873 37147 ft 453 kts 60°
2026-04-26 11:28 46.75724 13.47053 37150 ft 453 kts 60°
2026-04-26 11:29 46.78623 13.55228 37147 ft 454 kts 60°
2026-04-26 11:29 46.81519 13.63416 37162 ft 454 kts 60°
2026-04-26 11:30 46.83914 13.70210 37167 ft 453 kts 60°
2026-04-26 11:30 46.86753 13.80094 37162 ft 454 kts 69°
2026-04-26 11:31 46.88829 13.88821 37166 ft 454 kts 69°
2026-04-26 11:31 46.90887 13.97566 37159 ft 454 kts 69°
2026-04-26 11:32 46.92930 14.06317 37155 ft 454 kts 69°
2026-04-26 11:32 46.94964 14.15059 37176 ft 454 kts 69°
2026-04-26 11:33 46.97001 14.23814 37167 ft 454 kts 69°
2026-04-26 11:33 46.99027 14.32581 37036 ft 455 kts 70°
2026-04-26 11:34 47.00032 14.36956 36766 ft 453 kts 70°
2026-04-26 11:34 47.01025 14.41287 36117 ft 455 kts 70°
2026-04-26 11:34 47.02034 14.45700 35352 ft 457 kts 70°
2026-04-26 11:34 47.03042 14.50099 34856 ft 453 kts 70°
2026-04-26 11:35 47.04037 14.54449 34300 ft 451 kts 70°
2026-04-26 11:35 47.05033 14.58812 33697 ft 449 kts 71°
2026-04-26 11:35 47.06016 14.63136 33149 ft 444 kts 71°
2026-04-26 11:35 47.06989 14.67423 32611 ft 440 kts 70°
2026-04-26 11:36 47.07951 14.71663 32073 ft 437 kts 70°
2026-04-26 11:36 47.08909 14.75893 31538 ft 435 kts 70°
2026-04-26 11:36 47.09857 14.80098 31015 ft 433 kts 70°
2026-04-26 11:36 47.10798 14.84275 30489 ft 429 kts 70°
2026-04-26 11:37 47.11733 14.88422 29967 ft 427 kts 70°
2026-04-26 11:37 47.12661 14.92543 29451 ft 423 kts 70°
2026-04-26 11:37 47.13575 14.96630 28957 ft 418 kts 70°
2026-04-26 11:37 47.14475 15.00676 28459 ft 414 kts 70°
2026-04-26 11:38 47.15356 15.04628 28005 ft 410 kts 70°
2026-04-26 11:38 47.16241 15.08594 27535 ft 406 kts 69°
2026-04-26 11:38 47.17115 15.12515 27087 ft 402 kts 69°
2026-04-26 11:38 47.17977 15.16402 26644 ft 398 kts 69°
2026-04-26 11:39 47.18830 15.20257 26200 ft 395 kts 69°
2026-04-26 11:39 47.19679 15.24094 25754 ft 393 kts 69°
2026-04-26 11:39 47.20522 15.27906 25296 ft 391 kts 69°
2026-04-26 11:39 47.21360 15.31702 24844 ft 389 kts 69°
2026-04-26 11:40 47.22192 15.35487 24360 ft 388 kts 68°
2026-04-26 11:40 47.23018 15.39258 23876 ft 387 kts 68°
2026-04-26 11:40 47.23842 15.43018 23337 ft 386 kts 68°
2026-04-26 11:40 47.24661 15.46761 22854 ft 383 kts 68°
2026-04-26 11:41 47.25476 15.50486 22384 ft 381 kts 68°
2026-04-26 11:42 47.31021 15.76042 19126 ft 370 kts 68°
2026-04-26 11:43 47.31799 15.79657 18682 ft 369 kts 68°
2026-04-26 11:43 47.32572 15.83259 18198 ft 368 kts 68°
2026-04-26 11:43 47.33343 15.86850 17736 ft 366 kts 68°
2026-04-26 11:43 47.34105 15.90415 17291 ft 363 kts 68°
2026-04-26 11:44 47.34860 15.93956 16863 ft 362 kts 68°
2026-04-26 11:44 47.35602 15.97438 16456 ft 360 kts 68°
2026-04-26 11:44 47.36439 16.00903 16018 ft 354 kts 59°
2026-04-26 11:44 47.37725 16.03928 15607 ft 345 kts 44°
2026-04-26 11:45 47.39462 16.06263 15259 ft 334 kts 32°
2026-04-26 11:45 47.41310 16.08327 14864 ft 332 kts 32°
2026-04-26 11:45 47.43156 16.10378 14465 ft 330 kts 31°
2026-04-26 11:45 47.44991 16.12413 14084 ft 329 kts 31°
2026-04-26 11:46 47.46820 16.14437 13656 ft 328 kts 31°
2026-04-26 11:46 47.48640 16.16450 13246 ft 326 kts 31°
2026-04-26 11:46 47.50445 16.18449 12874 ft 323 kts 31°
2026-04-26 11:46 47.52238 16.20438 12465 ft 321 kts 31°
2026-04-26 11:47 47.54019 16.22417 12062 ft 319 kts 31°
2026-04-26 11:47 47.55773 16.24374 11860 ft 310 kts 31°
2026-04-26 11:47 47.57438 16.26236 11647 ft 297 kts 31°
2026-04-26 11:47 47.59089 16.28082 11107 ft 291 kts 31°
2026-04-26 11:48 47.60676 16.29850 10572 ft 285 kts 30°
2026-04-26 11:48 47.62240 16.31589 10120 ft 278 kts 30°
2026-04-26 11:48 47.63771 16.33291 9612 ft 271 kts 30°
2026-04-26 11:48 47.65251 16.34943 9230 ft 260 kts 30°
2026-04-26 11:49 47.66690 16.36552 8889 ft 259 kts 30°
2026-04-26 11:49 47.68124 16.38150 8520 ft 257 kts 30°
2026-04-26 11:49 47.69546 16.39739 8154 ft 255 kts 29°
2026-04-26 11:49 47.70969 16.41329 7794 ft 255 kts 29°
2026-04-26 11:50 47.72387 16.42912 7427 ft 255 kts 29°
2026-04-26 11:50 47.73810 16.44502 7068 ft 256 kts 28°
2026-04-26 11:50 47.75238 16.46103 6680 ft 257 kts 28°
2026-04-26 11:50 47.76661 16.47702 6391 ft 253 kts 29°
2026-04-26 11:51 47.78032 16.49254 6214 ft 243 kts 29°
2026-04-26 11:51 47.79365 16.50757 5938 ft 238 kts 30°
2026-04-26 11:51 47.80680 16.52236 5652 ft 234 kts 30°
2026-04-26 11:51 47.81971 16.53691 5357 ft 231 kts 30°
2026-04-26 11:52 47.83247 16.55128 5049 ft 229 kts 31°
2026-04-26 11:52 47.84089 16.56075 4785 ft 229 kts 31°
2026-04-26 11:52 47.85751 16.57950 4491 ft 224 kts 32°
2026-04-26 11:52 47.86987 16.59344 4377 ft 221 kts 31°
2026-04-26 11:53 47.88221 16.60735 4281 ft 223 kts 31°
2026-04-26 11:53 47.89457 16.62131 4182 ft 222 kts 32°
2026-04-26 11:53 47.90683 16.63520 4082 ft 221 kts 32°
2026-04-26 11:54 47.93376 16.65329 3752 ft 211 kts
2026-04-26 11:54 47.94803 16.65061 3509 ft 205 kts 344°
2026-04-26 11:54 47.96159 16.64490 3245 ft 201 kts 344°
2026-04-26 11:54 47.97487 16.63928 3002 ft 194 kts 345°
2026-04-26 11:55 47.98770 16.63388 2732 ft 190 kts 344°
2026-04-26 11:55 48.00036 16.62855 2454 ft 185 kts 344°
2026-04-26 11:55 48.01214 16.62359 2211 ft 167 kts 344°
2026-04-26 11:55 48.02274 16.61913 2000 ft 153 kts 345°
2026-04-26 11:56 48.03271 16.61495 1786 ft 148 kts 345°
2026-04-26 11:56 48.04251 16.61079 1575 ft 145 kts 345°
2026-04-26 11:56 48.05229 16.60668 1385 ft 147 kts 346°
2026-04-26 11:56 48.06198 16.60258 1189 ft 144 kts 347°
2026-04-26 11:57 48.07161 16.59855 968 ft 144 kts 345°
2026-04-26 11:57 48.08127 16.59445 798 ft 145 kts 345°
2026-04-26 11:57 48.09091 16.59038 624 ft 140 kts 346°
2026-04-26 11:57 48.09917 16.58692 614 ft 101 kts 345°
2026-04-26 11:58 48.10448 16.58467 615 ft 64 kts 345°
2026-04-26 11:58 48.10815 16.58305 613 ft 47 kts 344°
2026-04-26 11:58 48.11015 16.58139 610 ft 26 kts 307°
2026-04-26 11:58 48.11087 16.57931 620 ft 20 kts 295°
2026-04-26 11:59 48.11144 16.57758 620 ft 18 kts 296°
2026-04-26 11:59 48.11199 16.57585 618 ft 18 kts 296°
2026-04-26 11:59 48.11256 16.57413 620 ft 19 kts 296°
2026-04-26 11:59 48.11316 16.57237 618 ft 19 kts 295°
2026-04-26 12:00 48.11374 16.57052 616 ft 20 kts 296°
2026-04-26 12:00 48.11446 16.56834 621 ft 26 kts 297°
2026-04-26 12:00 48.11527 16.56580 612 ft 29 kts 296°
2026-04-26 12:00 48.11614 16.56314 611 ft 28 kts 296°
2026-04-26 12:01 48.11699 16.56053 612 ft 28 kts 296°
2026-04-26 12:01 48.11763 16.55852 622 ft 15 kts 296°
2026-04-26 12:01 48.11827 16.55782 612 ft 11 kts 349°
2026-04-26 12:01 48.11884 16.55767 613 ft 4 kts 349°
2026-04-26 12:02 48.11899 16.55763 615 ft 1 kts 349°
2026-04-26 12:02 48.11903 16.55761 613 ft 0 kts 349°